sat.trackr.live / text

‹ back to catalog

SKYNET 5C

NORAD 33055 · 2008-030A

PAYLOAD ACTIVE UNKNOWN

§ Identity

Operator
Country
UK
Launch date
2008-06-12
Launch site
FRGUI
Launch vehicle
Mass (kg)
RCS (m²)
29.10

Purposes: comms

External: N2YO · Heavens-Above · Gunter

§ Orbital elements

Epoch: 2026-05-25T03:39:32.747040Z

Period
1,436.10 min
Inclination
3.7324°
Eccentricity
0.0003981
Mean motion
1.00271719 rev/d
Perigee alt
35,769.8 km
Apogee alt
35,803.4 km
Semi-major
42,164.8 km
B*
0.0000e+0
RAAN
77.3060°
Arg perigee
352.2772°
Mean anomaly
210.2773°
Rev number
6,572

§ Raw data

SKYNET 5C1 33055U 08030A   26145.15246235 -.00000141  00000+0  00000+0 0  99982 33055   3.7324  77.3060 0003981 352.2772 210.2773  1.00271719 65729

JSON: /api/v1/satellites/33055 · /tle

For live sub-satellite position, see the globe view (requires WebGL).

§ Visibility from observer

Set your observer location to see the next 7 days of passes ≥ 10°. The values pass through the URL so the page stays shareable.

No JS? Fill the form by hand. The geolocation button needs JavaScript.